Tracking 26308 objects as of 1-Dec-2022
HD Live streaming from Space Station
objects crossing your sky now

MATS

Track MATS now!
10-day predictions


NORAD ID: 54227
Int'l Code: 2022-147A
Perigee: 587.7 km
Apogee: 605.4 km
Inclination: 97.7 °
Period: 96.5 minutes
Semi major axis: 6967 km
RCS: Unknown
Launch date: November 4, 2022
Source: Sweden (SWED)
Launch site: Rocket Lab Launch Complex (RLLC)
aabbcc
Your satellite tracking list
Your tracking list is empty




NASA's NSSDC Master Catalog

Two Line Element Set (TLE):
1 54227U 22147A   22333.75954585  .00001408  00000-0  14157-3 0  9991
2 54227  97.6525 335.7911 0012658 218.0621 141.9706 14.92740986  3738
Source of the keplerian elements: AFSPC